Wetbulb
59.16 58.74 61.41 60.88 60.34 59.95 59.87 59.60 58.80 57.96 57.67 57.52 57.18 56.57 56.03 55.89 56.01 55.84 55.52 55.02 55.36 55.54 55.12 54.39 53.99 53.88 54.75 54.74 55.07 62.95 62.22 61.76 58.74 58.26 55.58 53.04 52.17 51.90 48.72 50.02 50.71 49.59 50.51 51.81 54.92 55.42 53.83
57.18 58.39 59.06 60.62 60.17 59.94 59.94 59.53 58.59 57.88 57.47 57.06 56.87 56.51 55.88 55.46 55.44 55.09 55.22 54.88 55.04 55.06 54.23 53.73 53.28 52.86 54.47 50.37 58.68 62.59 59.77 58.44 58.06 57.79 54.91 54.49 52.86 53.10 50.98 50.49 50.52 51.89 51.24 50.38 52.62 53.98 55.76
56.65 57.37 58.11 59.72 59.55 59.48 59.37 58.60 58.09 57.89 57.53 56.98 56.77 56.43 55.63 55.35 55.37 54.57 54.39 54.85 54.59 54.66 53.32 52.94 52.69 54.82 53.90 54.47 59.43 62.74 59.50 57.71 58.30 56.65 54.83 56.41 56.38 53.37 53.43 51.01 53.26 51.03 47.44 48.83 50.54 52.93 53.21
56.36 56.63 58.22 57.90 58.97 58.52 58.41 57.85 57.47 57.62 57.37 56.88 56.88 56.25 54.94 55.05 54.62 53.83 54.06 54.34 53.93 53.31 52.71 52.44 52.58 55.47 52.90 59.81 61.14 60.41 61.38 59.27 59.78 58.84 57.93 58.49 58.13 55.14 53.15 53.71 50.36 47.97 48.43 44.80 48.88 52.34 53.02
55.74 56.33 57.29 57.70 58.55 58.33 57.76 57.37 57.22 57.40 57.23 56.70 56.45 55.79 54.73 54.07 53.81 53.60 54.05 53.89 52.71 52.37 52.21 52.62 55.03 55.05 53.41 58.57 55.62 58.30 59.96 56.52 58.02 58.48 58.06 57.21 56.80 53.52 52.90 48.90 46.16 46.60 42.29 44.76 46.48 51.87 51.67
55.26 55.45 56.05 57.29 57.59 58.47 58.00 57.37 56.62 56.80 56.59 56.25 56.07 55.18 54.52 54.13 53.71 53.63 53.62 52.68 52.76 51.98 53.88 56.52 56.74 53.48 57.40 53.15 56.44 56.78 58.76 57.91 56.38 56.18 54.74 54.44 52.93 50.43 49.75 48.10 40.22 42.65 43.27 45.10 45.38 49.69 50.72
53.80 54.97 55.68 56.76 57.26 58.70 58.74 57.94 56.86 56.04 55.90 55.80 55.80 54.81 54.28 54.22 54.60 53.59 52.32 55.61 53.84 53.66 54.90 53.69 53.92 53.23 53.00 56.29 58.19 56.03 56.49 55.85 56.21 55.16 50.36 51.87 47.21 44.44 47.14 48.58 47.71 46.84 45.52 44.06 46.87 49.24 47.79
53.18 54.08 54.59 55.45 56.51 57.95 59.13 58.30 56.84 55.98 55.92 55.76 55.34 54.36 54.34 55.07 54.79 52.98 54.57 54.67 57.12 59.37 53.78 55.96 54.83 54.32 55.78 55.99 52.10 53.71 56.45 52.78 52.45 48.24 50.44 48.62 45.75 49.05 49.41 48.56 46.48 45.94 44.59 45.20 47.19 49.03 49.25
52.41 53.00 53.73 54.66 55.54 56.36 58.56 58.27 56.87 55.72 55.58 55.33 54.91 54.46 54.95 54.57 53.17 52.61 55.59 56.44 61.90 61.06 54.36 53.68 55.16 53.85 53.93 55.63 51.43 51.93 54.44 53.99 50.70 48.48 48.55 46.22 48.10 50.38 48.72 47.32 45.92 46.20 44.77 45.60 45.67 48.77 50.00
51.91 52.16 53.03 54.17 54.94 55.54 56.81 57.84 56.91 55.92 55.31 54.81 54.62 54.61 54.04 52.83 50.90 57.43 55.28 58.93 60.32 59.72 49.40 48.50 51.35 53.85 54.84 54.76 50.32 54.46 55.25 53.75 50.20 47.68 48.58 46.59 50.81 49.01 47.02 46.16 47.57 44.69 49.07 47.98 46.99 46.47 42.24
51.50 51.49 52.42 53.25 54.12 54.24 54.99 56.60 56.53 55.88 55.27 54.56 54.55 54.22 53.29 52.86 58.79 55.33 60.87 64.15 62.22 61.10 36.89 49.29 50.48 56.76 54.37 50.87 51.50 52.11 56.40 53.52 49.31 48.34 48.42 46.81 48.80 48.45 46.53 47.92 49.87 46.87 50.19 49.32 48.34 46.90 46.05
50.80 51.13 51.66 52.53 53.09 53.66 53.89 55.40 55.58 55.27 54.77 54.36 54.33 53.86 53.27 53.29 56.04 60.39 62.82 64.57 62.19 47.89 36.45 45.69 50.27 49.29 49.86 50.53 49.93 52.96 52.17 54.52 54.26 49.32 50.48 47.19 52.76 51.28 50.46 50.49 50.46 50.94 49.36 48.76 48.85 46.31 40.64
50.32 50.83 51.23 52.03 52.48 53.40 53.75 54.97 54.85 54.63 54.26 54.26 53.98 53.85 53.97 57.36 56.28 63.11 64.87 60.39 47.18 40.10 47.91 44.71 46.04 48.92 48.27 46.97 47.99 49.52 48.66 47.51 46.16 43.76 43.68 48.41 48.81 50.98 51.72 48.48 50.69 49.63 47.12 40.33 38.82 39.08 38.36
48.73 50.24 50.98 51.63 52.11 52.94 53.42 54.67 54.47 53.98 53.79 53.80 53.22 53.19 54.03 58.01 61.02 62.95 62.45 52.62 40.51 44.60 45.36 48.13 47.68 47.83 45.62 47.57 47.42 47.81 47.48 45.77 48.90 48.89 44.47 42.73 41.66 48.54 51.28 50.01 47.14 47.91 46.75 41.20 33.26 35.59 39.33
47.27 49.20 50.11 50.60 51.82 52.41 53.05 54.22 54.03 53.47 53.01 53.24 52.72 54.19 53.81 56.93 59.42 60.65 56.25 45.30 44.01 45.40 48.32 46.38 46.96 44.82 45.61 47.26 47.03 46.91 46.54 46.13 48.50 49.68 44.35 43.61 42.64 49.79 49.90 50.98 49.96 46.95 44.29 48.82 43.19 43.22 39.39
46.22 47.46 49.48 50.08 51.06 51.95 52.50 53.72 53.89 53.09 52.75 52.46 54.37 52.11 54.26 60.09 60.28 58.99 51.81 44.32 47.83 50.07 50.27 48.65 43.54 46.44 44.16 45.86 44.84 45.62 46.59 49.54 48.88 51.18 52.74 47.61 42.47 47.72 49.17 50.96 50.96 48.95 50.22 42.61 43.22 34.01 33.07
46.62 46.26 48.79 49.50 50.25 51.33 52.07 53.11 53.45 52.72 52.57 52.52 54.90 50.40 58.56 61.69 59.76 54.32 46.43 47.59 49.55 52.54 52.10 48.12 46.23 45.36 46.74 45.97 46.40 45.58 46.14 49.43 51.18 50.87 52.40 49.50 46.51 45.93 48.34 46.97 45.83 47.02 45.24 45.62 45.52 44.16 36.71
46.22 46.17 47.43 48.93 49.57 50.69 51.89 52.84 53.11 52.51 52.14 51.75 53.97 47.10 60.39 62.67 49.40 51.74 48.40 50.12 49.38 51.71 54.29 50.96 50.63 48.53 47.21 47.68 46.49 46.15 45.36 47.88 52.58 52.41 47.95 50.00 47.23 43.39 45.39 49.99 50.79 49.87 47.73 47.38 40.92 39.03 41.45
45.66 45.32 46.84 48.84 49.10 49.65 51.18 52.31 52.65 52.00 52.17 54.44 51.81 53.07 60.91 59.55 46.57 50.47 51.63 50.15 50.84 51.10 51.19 50.78 48.41 50.19 50.34 47.67 44.83 47.24 47.98 50.86 51.64 51.67 49.05 51.01 45.65 40.81 42.71 46.91 49.08 46.17 47.51 47.69 46.51 44.97 39.81
44.52 43.60 47.77 48.84 48.95 49.52 50.53 51.69 52.31 51.87 52.28 56.95 53.00 48.41 53.52 55.21 54.56 51.12 49.31 48.37 47.89 52.93 51.53 52.17 49.95 51.94 50.42 48.82 50.55 48.21 48.94 49.55 51.14 51.48 45.43 48.98 47.38 44.06 40.02 43.45 47.07 44.95 46.06 47.16 45.98 41.00 40.91
44.23 46.27 48.09 48.67 49.24 49.59 50.58 51.19 51.89 51.74 51.79 55.14 54.19 50.53 53.17 47.30 50.47 52.03 50.83 49.22 47.26 47.59 52.11 53.22 50.90 50.17 49.33 46.50 48.25 47.89 50.48 48.52 50.04 46.29 49.63 50.47 44.44 46.42 46.64 46.37 45.80 45.39 44.93 45.96 44.34 44.78 42.01
45.26 46.59 47.32 48.13 48.65 49.40 50.02 49.77 51.49 51.47 51.81 53.09 51.57 51.53 53.72 51.82 52.26 50.60 47.64 48.36 47.41 49.56 50.75 49.91 49.39 50.38 50.79 48.45 49.25 47.25 50.29 49.76 48.81 50.67 50.30 50.39 44.63 44.61 42.66 46.10 45.01 43.21 45.15 45.11 45.12 45.51 44.97
46.68 47.02 47.51 47.98 48.73 49.20 49.24 48.62 51.18 51.48 51.99 52.98 56.66 57.54 54.77 49.96 51.80 48.75 49.83 49.01 48.70 52.11 51.95 53.07 52.07 51.33 50.45 51.78 54.07 54.35 54.46 53.41 52.55 50.62 49.22 47.98 45.47 41.69 37.82 41.81 42.10 37.53 43.04 44.82 45.34 46.48 46.18
46.55 47.00 47.54 47.97 48.61 49.07 48.67 47.76 50.78 51.13 52.03 57.03 57.96 57.05 51.62 48.35 50.60 48.84 49.45 50.23 49.65 52.09 50.73 52.18 54.37 52.54 53.03 55.90 55.31 54.21 52.54 51.06 50.29 49.33 51.54 45.40 44.57 42.68 38.80 36.19 30.66 42.74 46.70 45.66 44.86 46.14 47.54
46.14 46.57 47.68 48.28 48.52 48.66 47.91 47.57 50.53 50.70 51.48 56.82 60.29 57.59 53.62 46.55 50.21 49.15 49.07 49.17 51.05 53.33 52.67 52.43 52.48 55.02 56.37 54.29 49.01 45.16 45.39 44.82 45.19 46.69 46.11 47.81 44.93 39.20 38.21 36.92 40.84 42.70 44.17 43.20 42.44 43.08 47.53
46.14 47.18 47.97 48.27 48.22 48.48 47.78 49.86 50.13 50.46 51.12 55.38 61.97 61.79 57.37 51.45 49.56 50.97 49.11 49.94 50.95 51.59 50.78 49.44 53.87 55.86 53.71 52.84 48.39 41.57 39.67 42.87 41.96 44.17 46.40 44.42 45.23 42.70 38.19 35.73 32.58 42.88 45.38 48.24 47.75 39.71 47.24
46.66 47.25 47.87 48.22 48.45 48.66 48.94 49.73 49.81 50.12 50.76 54.93 61.97 62.50 56.99 50.78 52.76 52.62 49.67 48.96 52.71 53.31 51.75 50.34 50.25 49.98 52.27 49.53 43.83 44.37 42.66 45.53 40.18 38.89 37.81 40.68 41.62 38.87 38.90 37.81 40.94 45.55 46.17 48.48 37.88 41.72 49.04
46.85 47.46 47.80 47.63 49.23 48.93 49.44 49.53 49.55 49.82 50.28 53.96 61.75 62.93 58.55 53.45 53.92 55.03 54.49 52.34 52.64 53.49 50.99 52.15 50.36 50.78 50.52 46.25 47.09 46.62 44.95 45.14 43.56 44.80 42.38 41.03 39.96 39.26 40.40 35.83 33.42 46.83 47.14 42.15 48.27 49.94 49.82
47.21 47.68 47.97 48.53 48.32 48.67 48.83 49.21 49.40 49.91 50.22 52.49 60.30 62.53 63.93 57.21 55.81 58.97 58.27 58.14 57.57 57.89 56.08 53.84 53.24 52.43 53.04 50.58 49.62 50.75 42.77 39.52 44.58 40.38 46.76 41.48 45.51 44.54 43.20 43.85 48.13 48.71 48.08 50.04 50.74 49.64 49.69
MSLP
1018.39 1018.34 1018.03 1018.27 1018.51 1018.61 1018.69 1018.96 1019.06 1019.13 1019.23 1019.41 1019.39 1019.26 1019.26 1019.06 1018.83 1018.54 1018.30 1018.15 1018.23 1018.20 1018.02 1017.86 1017.51 1017.41 1016.71 1014.08 1010.19 1009.61 1009.84 1010.51 1010.80 1010.70 1009.30 1008.54 1008.07 1007.50 1006.75 1006.36 1006.27 1006.19 1005.47 1005.57 1005.39 1005.27 1005.54
1018.15 1017.95 1017.90 1017.73 1017.92 1018.19 1018.21 1018.36 1018.56 1018.72 1018.81 1018.98 1018.94 1019.08 1019.10 1018.65 1018.73 1018.34 1018.22 1018.16 1018.09 1018.06 1017.93 1017.76 1017.58 1017.54 1016.10 1011.89 1008.46 1008.91 1009.45 1010.02 1009.66 1009.48 1008.88 1008.32 1007.66 1007.23 1006.67 1006.20 1006.13 1006.06 1005.88 1005.81 1005.75 1005.82 1006.88
1017.70 1017.52 1017.47 1017.47 1017.35 1017.57 1017.90 1017.97 1018.13 1018.29 1018.41 1018.61 1018.54 1018.61 1018.81 1018.50 1018.50 1018.22 1018.03 1018.22 1018.08 1017.94 1017.81 1017.72 1017.51 1016.78 1014.61 1010.32 1008.55 1008.85 1009.29 1009.14 1008.96 1008.84 1008.27 1008.10 1007.87 1007.87 1007.15 1006.75 1006.72 1006.57 1006.34 1006.21 1006.15 1006.10 1006.13
1017.17 1017.10 1017.12 1017.08 1016.94 1016.98 1017.28 1017.45 1017.64 1017.89 1018.09 1018.18 1018.28 1018.23 1018.35 1018.28 1018.33 1017.96 1017.76 1018.11 1018.00 1017.83 1017.77 1017.65 1017.53 1016.24 1012.44 1009.02 1008.78 1008.76 1008.78 1008.69 1008.79 1009.01 1008.64 1008.48 1008.51 1008.42 1007.60 1007.33 1007.00 1006.55 1006.28 1005.62 1005.92 1005.90 1006.16
1016.66 1016.58 1016.51 1016.64 1016.62 1016.52 1016.69 1016.92 1017.11 1017.39 1017.64 1017.93 1017.89 1017.99 1018.00 1018.00 1018.26 1017.81 1017.67 1017.99 1017.86 1017.65 1017.53 1017.31 1016.80 1015.32 1010.36 1009.30 1008.63 1007.75 1008.16 1007.98 1008.47 1008.71 1008.84 1009.16 1008.92 1008.34 1007.85 1007.48 1006.46 1006.57 1005.52 1005.16 1005.69 1005.76 1006.02
1016.11 1016.12 1016.06 1016.01 1016.03 1016.02 1016.10 1016.36 1016.61 1016.92 1017.06 1017.53 1017.65 1017.63 1017.63 1017.73 1017.91 1017.80 1017.78 1017.85 1017.72 1017.59 1016.85 1015.97 1015.54 1014.24 1010.16 1007.89 1007.50 1007.47 1007.63 1007.92 1008.01 1008.64 1009.09 1008.82 1008.58 1007.83 1007.33 1006.50 1005.88 1005.44 1004.76 1004.53 1004.91 1005.91 1005.91
1015.42 1015.43 1015.52 1015.53 1015.48 1015.43 1015.55 1015.76 1016.06 1016.45 1016.69 1017.04 1017.32 1017.61 1017.45 1017.40 1017.65 1017.63 1017.94 1017.42 1016.94 1015.61 1014.26 1012.14 1011.04 1009.77 1008.30 1007.95 1007.55 1007.22 1007.43 1007.88 1008.04 1008.02 1007.55 1008.36 1007.84 1007.13 1006.25 1006.20 1005.74 1005.08 1004.61 1004.33 1005.18 1006.07 1005.84
1014.55 1014.67 1014.75 1014.94 1014.92 1014.93 1014.87 1015.21 1015.56 1015.95 1016.19 1016.64 1016.97 1017.36 1017.39 1017.33 1017.49 1017.58 1017.63 1014.85 1012.66 1012.62 1011.43 1010.45 1010.08 1009.13 1008.56 1008.32 1007.12 1006.65 1006.74 1007.10 1007.27 1007.29 1007.40 1008.02 1007.16 1006.82 1005.91 1005.94 1005.80 1005.16 1004.84 1005.01 1005.94 1006.53 1006.45
1013.50 1013.76 1014.02 1014.14 1014.24 1014.39 1014.40 1014.56 1015.07 1015.49 1015.90 1016.17 1016.64 1017.02 1017.13 1017.28 1017.74 1017.89 1015.60 1013.63 1012.24 1012.48 1011.10 1008.87 1008.65 1008.09 1007.41 1007.81 1006.67 1006.08 1006.29 1006.04 1006.71 1007.30 1007.20 1007.20 1007.09 1006.98 1006.37 1006.11 1005.81 1005.34 1005.09 1005.57 1005.54 1006.39 1006.39
1012.52 1012.75 1013.06 1013.37 1013.55 1013.68 1013.80 1013.94 1014.41 1014.96 1015.41 1015.85 1016.26 1016.67 1016.98 1017.10 1017.92 1015.08 1014.08 1013.01 1013.07 1013.25 1010.75 1008.10 1007.54 1006.69 1006.97 1006.93 1006.47 1006.29 1006.18 1005.87 1006.75 1006.54 1006.96 1007.76 1007.49 1006.95 1006.33 1006.06 1005.98 1005.62 1005.91 1005.87 1005.86 1006.01 1005.36
1011.66 1011.69 1012.02 1012.43 1012.91 1012.93 1013.23 1013.47 1013.79 1014.40 1014.95 1015.40 1015.98 1016.41 1016.62 1016.07 1014.99 1013.77 1012.62 1012.25 1012.64 1013.05 1009.72 1006.71 1006.11 1006.20 1006.13 1006.37 1005.98 1006.51 1006.59 1006.23 1005.93 1006.80 1007.42 1006.99 1006.90 1006.29 1006.21 1006.16 1006.29 1007.20 1006.61 1006.10 1005.92 1005.31 1004.89
1010.58 1010.84 1011.00 1011.52 1011.98 1012.25 1012.61 1012.90 1013.16 1013.82 1014.41 1015.03 1015.64 1016.19 1016.60 1016.87 1015.55 1013.21 1012.92 1012.78 1012.66 1011.96 1007.63 1006.24 1005.73 1005.85 1006.06 1006.08 1005.88 1005.77 1006.32 1006.55 1006.28 1006.85 1007.25 1008.63 1007.37 1006.66 1006.30 1006.86 1006.74 1006.82 1006.68 1006.64 1006.31 1005.69 1005.24
1009.25 1009.60 1010.12 1010.48 1011.02 1011.58 1011.92 1012.24 1012.57 1013.23 1013.84 1014.54 1015.16 1015.93 1016.23 1014.97 1013.21 1013.02 1013.03 1012.33 1011.29 1009.37 1006.75 1005.61 1005.30 1005.40 1005.48 1005.78 1005.87 1005.97 1006.15 1006.32 1006.14 1006.65 1006.94 1007.05 1006.81 1007.19 1007.16 1006.96 1007.11 1006.83 1006.62 1006.17 1006.09 1005.92 1005.69
1008.15 1008.53 1008.86 1009.58 1010.05 1010.74 1011.21 1011.68 1012.02 1012.59 1013.41 1014.13 1015.02 1015.64 1015.58 1014.32 1013.47 1013.43 1012.64 1011.42 1009.26 1007.00 1005.54 1004.88 1004.95 1005.26 1005.12 1005.39 1005.67 1005.94 1005.72 1005.67 1005.95 1006.14 1006.21 1006.25 1006.54 1006.77 1007.07 1006.72 1006.22 1006.66 1006.39 1006.42 1006.32 1006.46 1005.94
1007.45 1007.38 1007.98 1008.50 1009.28 1009.68 1010.40 1010.98 1011.46 1012.00 1012.88 1013.88 1014.92 1015.59 1014.67 1013.70 1014.11 1013.75 1011.87 1009.82 1007.61 1005.49 1004.81 1004.71 1004.97 1004.90 1004.92 1005.35 1005.60 1005.82 1005.97 1005.46 1005.53 1006.03 1005.60 1005.16 1006.17 1007.16 1007.40 1007.35 1007.18 1006.55 1007.24 1007.25 1007.34 1007.99 1007.63
1006.57 1006.79 1006.97 1007.55 1008.24 1008.73 1009.45 1010.22 1010.98 1011.40 1012.30 1013.37 1013.65 1014.10 1012.34 1012.42 1013.47 1013.00 1011.01 1008.26 1006.47 1005.32 1004.62 1004.43 1004.42 1004.47 1004.47 1005.04 1005.58 1005.58 1005.60 1005.56 1006.03 1006.61 1006.32 1005.83 1006.15 1007.00 1007.83 1007.86 1007.79 1007.62 1007.40 1007.70 1007.98 1007.98 1007.46
1005.28 1005.86 1006.11 1006.63 1007.21 1007.80 1008.58 1009.38 1010.34 1010.82 1011.67 1012.63 1012.20 1011.77 1009.02 1011.12 1012.73 1011.49 1008.98 1007.23 1005.78 1005.38 1004.97 1004.44 1004.12 1004.21 1004.15 1004.54 1005.06 1005.28 1005.21 1006.20 1006.64 1006.97 1006.98 1006.61 1007.02 1007.47 1008.06 1007.48 1006.56 1007.47 1007.56 1007.87 1007.89 1008.17 1007.90
1004.09 1004.82 1005.37 1005.67 1006.37 1006.95 1007.59 1008.51 1009.47 1010.08 1011.01 1012.25 1010.97 1009.74 1009.66 1010.17 1010.42 1009.19 1007.78 1006.50 1005.60 1004.91 1005.04 1004.56 1004.49 1004.16 1004.41 1004.53 1005.03 1005.14 1005.45 1005.91 1006.90 1007.15 1007.27 1007.42 1007.29 1007.24 1007.27 1007.29 1007.48 1007.19 1006.89 1007.33 1008.05 1008.25 1008.60
1002.99 1003.78 1004.53 1004.79 1005.49 1006.05 1006.82 1007.64 1008.56 1009.02 1009.81 1010.02 1008.98 1008.54 1009.54 1009.16 1007.69 1007.41 1006.74 1006.00 1005.22 1004.71 1004.51 1004.61 1004.48 1004.37 1004.56 1004.67 1005.20 1005.58 1006.26 1007.83 1008.32 1008.12 1007.79 1008.13 1007.93 1007.67 1007.41 1007.81 1007.67 1007.32 1007.26 1007.49 1007.79 1008.70 1008.19
1002.12 1002.46 1003.34 1003.91 1004.55 1005.03 1006.05 1006.81 1007.75 1007.98 1008.82 1008.51 1007.22 1006.41 1008.47 1008.38 1007.04 1006.29 1005.69 1005.01 1005.06 1004.67 1004.17 1004.18 1004.20 1004.50 1004.83 1004.93 1005.45 1005.86 1006.74 1008.33 1008.92 1008.73 1009.39 1009.11 1008.22 1007.89 1007.50 1006.94 1006.70 1007.14 1007.14 1007.28 1007.78 1007.93 1007.64
1000.84 1001.57 1002.14 1003.05 1003.74 1004.43 1005.34 1006.02 1007.06 1007.14 1007.82 1008.23 1005.08 1003.58 1003.93 1005.09 1005.31 1005.34 1005.21 1004.74 1004.25 1004.12 1004.44 1004.49 1004.43 1004.52 1004.61 1004.97 1005.49 1006.06 1006.84 1008.46 1009.22 1009.73 1009.67 1009.51 1009.04 1008.75 1008.33 1008.27 1008.00 1007.49 1007.04 1007.07 1007.04 1007.05 1006.84
1000.46 1001.08 1001.69 1002.54 1003.18 1003.88 1004.76 1005.68 1006.56 1006.47 1007.21 1007.73 1003.39 1002.18 1002.94 1004.02 1004.91 1004.57 1004.26 1003.85 1003.46 1003.49 1003.91 1004.06 1003.87 1004.26 1004.54 1004.98 1005.60 1005.71 1006.53 1007.57 1008.02 1009.51 1009.56 1009.81 1009.85 1010.16 1009.80 1009.17 1008.93 1008.16 1007.53 1007.05 1006.65 1006.54 1006.23
999.72 1000.41 1001.09 1001.97 1002.59 1003.41 1003.92 1004.79 1005.45 1005.87 1007.03 1005.49 1003.11 1002.04 1001.88 1003.12 1003.79 1004.06 1003.26 1003.39 1003.13 1003.23 1004.53 1003.85 1003.98 1004.38 1005.17 1005.87 1006.48 1006.74 1007.03 1007.45 1007.78 1008.68 1009.38 1009.99 1010.56 1010.95 1010.57 1010.44 1009.79 1008.97 1007.61 1007.01 1006.49 1006.32 1006.08
999.16 999.87 1000.52 1001.31 1001.88 1002.66 1003.86 1004.82 1004.88 1005.34 1005.91 1003.62 1002.44 1001.67 1001.41 1002.50 1002.64 1003.25 1003.25 1003.41 1003.05 1003.32 1004.19 1004.82 1004.60 1004.93 1007.04 1007.35 1007.59 1007.98 1008.29 1008.79 1009.17 1009.69 1009.84 1010.71 1011.01 1011.55 1011.80 1011.96 1010.22 1007.63 1007.47 1007.13 1006.79 1006.31 1005.91
998.61 999.43 999.82 1000.49 1001.40 1002.02 1003.33 1003.75 1004.44 1004.92 1005.48 1003.87 1002.21 1001.91 1000.82 1002.41 1002.47 1003.18 1003.10 1003.34 1003.41 1004.03 1004.75 1005.64 1006.57 1006.57 1007.24 1007.25 1008.03 1008.96 1009.46 1009.95 1010.16 1010.47 1010.76 1011.01 1011.48 1012.11 1012.35 1011.26 1009.48 1008.25 1007.48 1007.83 1007.45 1006.85 1006.57
998.19 998.88 999.14 999.71 1000.42 1001.21 1002.29 1003.25 1003.58 1004.59 1004.32 1005.39 1003.07 1001.80 1000.71 1001.94 1002.16 1002.35 1002.92 1003.24 1003.64 1004.47 1005.96 1007.31 1007.88 1007.97 1008.17 1007.98 1008.46 1008.69 1009.06 1009.30 1009.91 1010.70 1011.49 1011.83 1012.18 1012.12 1012.51 1011.66 1009.97 1008.69 1008.70 1008.71 1008.38 1007.74 1007.99
997.59 998.09 998.84 999.48 999.91 1000.43 1001.70 1002.94 1003.38 1003.75 1004.51 1005.37 1002.50 1002.06 1000.76 1001.17 1001.86 1002.44 1002.57 1003.02 1003.68 1004.21 1005.14 1007.29 1008.27 1008.68 1008.63 1008.39 1009.05 1009.09 1009.13 1009.48 1009.70 1010.31 1011.34 1011.95 1012.03 1012.16 1012.05 1011.50 1009.91 1008.77 1009.00 1009.10 1008.70 1009.09 1008.92
996.92 997.13 998.32 999.25 999.15 1000.06 1001.58 1002.31 1002.90 1003.32 1004.49 1005.72 1002.79 1002.20 1000.74 1001.07 1002.74 1003.21 1003.02 1003.49 1003.69 1003.89 1005.00 1006.66 1007.66 1008.10 1008.38 1008.68 1009.06 1009.31 1009.67 1009.86 1009.91 1009.63 1010.28 1010.62 1011.13 1011.49 1011.50 1011.22 1009.93 1009.23 1009.24 1009.15 1009.33 1009.21 1009.22
996.69 997.12 997.51 998.53 999.31 1000.08 1001.16 1001.81 1002.44 1003.22 1004.31 1005.15 1003.03 1002.10 1001.30 1001.74 1003.83 1004.18 1004.90 1004.83 1004.76 1003.83 1004.15 1006.00 1005.30 1006.19 1006.94 1007.39 1008.76 1009.71 1010.29 1010.82 1010.61 1009.94 1009.94 1009.99 1009.91 1010.01 1010.18 1009.43 1009.41 1009.35 1009.25 1009.32 1009.64 1009.86 1009.92
Wind_Speed
13 14 16 15 15 14 13 12 11 10 8 8 8 8 9 12 13 10 9 8 9 10 8 7 8 10 9 8 13 10 13 13 15 12 12 11 11 13 12 12 14 10 3 3 4 5 12
16 13 14 16 16 15 14 14 12 11 9 9 9 8 9 10 12 10 9 8 8 8 5 5 7 9 7 11 5 7 13 15 14 16 12 12 8 8 8 6 10 8 8 5 7 7 13
18 16 13 17 16 16 15 13 13 12 10 9 9 7 8 9 9 8 8 9 8 6 3 3 4 7 9 16 4 7 10 11 10 13 11 10 9 8 3 7 6 5 6 9 9 10 8
17 17 15 13 17 16 15 14 14 12 10 9 9 7 8 8 7 6 6 7 5 2 2 2 3 5 10 5 8 8 11 8 10 12 13 6 6 10 8 4 6 8 9 10 8 15 6
17 17 16 14 16 17 15 15 14 13 10 10 9 7 6 7 8 6 6 5 3 1 2 3 6 5 7 4 10 8 13 7 8 8 7 4 7 8 5 11 7 6 14 13 10 13 9
19 19 18 15 15 19 17 16 14 13 11 11 9 7 5 6 8 6 3 5 6 8 7 6 7 7 10 6 1 2 6 8 5 9 9 7 8 7 9 11 8 16 17 12 13 12 12
21 19 18 18 15 18 19 17 15 14 12 11 9 7 5 7 7 6 8 6 8 8 7 12 4 9 3 5 7 9 7 9 7 13 9 8 2 9 8 12 8 10 6 10 12 5 10
22 22 19 19 15 16 20 18 15 14 13 11 9 6 7 6 5 9 10 8 8 7 9 20 18 11 11 4 6 8 10 10 7 10 4 6 13 6 2 4 5 3 5 12 8 9 8
23 22 21 20 19 17 20 18 16 14 12 11 10 7 6 4 9 4 11 14 5 12 8 10 12 10 7 9 10 12 10 10 12 16 6 10 9 0 4 8 10 4 5 7 11 12 14
25 23 21 21 20 17 16 19 17 15 13 12 11 10 8 14 5 8 8 11 12 3 8 12 9 8 8 8 9 3 4 4 10 7 5 6 9 10 1 4 3 9 1 8 4 12 14
27 24 21 21 20 17 14 18 17 16 14 13 12 11 15 22 7 7 6 3 3 4 7 15 12 6 5 10 13 8 2 6 12 4 5 4 11 11 12 2 5 14 4 6 8 14 7
28 27 25 22 20 18 16 17 18 17 15 14 13 12 15 7 6 11 5 4 4 6 7 8 10 11 11 11 8 12 9 4 4 10 15 10 5 5 8 2 3 4 4 5 7 11 7
28 27 26 23 21 20 18 18 18 18 16 15 14 14 15 9 3 1 5 5 6 12 7 11 14 11 14 10 13 11 14 12 11 11 12 12 10 5 4 6 4 8 9 8 8 6 9
25 27 25 25 23 20 18 19 20 19 16 15 13 14 11 11 8 4 6 8 12 15 12 5 15 13 12 10 13 16 11 16 11 14 11 13 10 12 8 11 4 9 12 7 6 7 11
27 23 27 26 23 21 19 19 20 20 19 17 15 7 6 10 13 6 9 10 14 9 10 10 12 13 12 10 5 14 18 16 16 14 13 9 8 7 1 3 6 5 9 6 5 1 7
27 26 26 26 25 22 20 19 20 22 23 23 10 6 12 11 15 7 9 15 21 2 6 11 15 14 14 14 10 14 13 7 5 4 5 2 3 2 6 4 6 9 3 5 6 5 9
27 22 25 27 26 22 21 20 23 24 27 26 11 7 9 17 13 7 12 16 19 8 8 11 16 12 12 12 14 15 11 8 6 7 6 6 7 7 4 10 10 8 10 7 6 3 5
28 26 26 27 25 21 21 21 24 28 29 19 13 12 12 15 12 11 15 21 9 11 8 8 7 9 12 11 12 11 13 5 8 6 11 4 5 7 11 6 5 10 8 10 6 6 2
24 23 27 26 23 20 21 21 26 31 31 13 13 9 6 14 15 12 19 23 13 11 11 12 11 8 9 10 10 11 8 5 3 7 4 6 7 8 7 7 8 9 10 9 4 1 7
26 19 29 25 22 20 21 20 26 33 31 14 12 12 8 9 16 19 23 21 18 8 8 11 12 9 10 7 5 8 8 4 4 2 3 0 11 10 10 5 3 11 13 11 12 7 9
16 26 22 22 21 21 22 19 27 34 33 12 14 12 13 17 19 19 23 18 22 13 10 13 11 15 12 8 9 7 9 6 5 5 6 5 8 13 14 5 6 9 9 12 16 16 14
25 23 20 19 20 21 19 11 30 33 31 11 11 13 15 19 24 19 20 22 24 19 15 15 11 16 13 9 11 10 11 9 7 10 8 6 4 2 5 8 8 11 12 14 14 16 17
22 21 18 20 21 23 19 13 28 33 26 11 8 5 13 17 24 18 17 21 22 16 1 4 13 9 10 6 7 10 9 4 3 7 9 5 5 4 3 4 5 7 15 17 17 16 13
21 19 19 21 22 21 20 17 29 32 30 11 6 5 10 14 17 18 21 20 20 16 10 5 7 9 7 13 13 11 11 8 6 6 4 5 4 2 0 2 1 2 1 5 8 13 15
18 19 21 23 24 20 21 23 32 29 35 10 6 7 8 5 13 24 21 21 16 10 11 11 6 5 16 8 4 5 3 3 2 3 4 3 4 3 3 6 8 11 7 2 3 7 9
20 21 23 23 22 24 23 27 28 29 38 10 11 6 9 9 13 22 19 18 11 11 7 5 7 8 3 2 2 5 5 5 5 7 2 5 1 4 3 3 4 5 4 1 1 6 8
21 22 22 21 20 24 23 26 28 30 25 12 4 5 6 8 14 14 15 13 12 10 7 7 8 5 3 3 2 4 5 2 5 5 4 3 2 5 6 4 6 3 2 2 5 4 7
18 19 21 19 17 29 31 28 27 24 21 15 4 4 4 6 7 3 6 12 13 12 7 10 7 2 3 3 4 3 2 4 2 2 6 7 7 4 3 3 6 6 6 1 6 6 7
17 19 18 22 25 25 25 25 23 20 20 20 4 1 5 4 7 5 7 7 4 6 7 12 4 11 7 4 1 3 2 2 0 3 3 4 4 1 6 1 5 4 4 5 5 8 8
Wind_Direction
299 317 233 227 225 228 230 230 231 234 242 259 269 274 288 303 306 308 316 311 299 299 307 319 330 335 298 234 255 78 114 140 175 207 223 206 212 224 230 210 199 229 219 205 260 140 151
283 289 286 225 222 228 227 225 226 229 233 246 255 272 278 301 302 308 313 303 292 294 304 334 330 318 256 258 54 116 126 156 180 198 217 217 234 260 278 218 213 199 260 246 183 175 176
277 279 282 252 221 223 229 226 226 227 228 241 250 264 282 298 297 305 310 299 289 287 299 338 340 286 261 248 0 143 161 193 204 219 211 233 257 249 286 223 249 256 235 188 185 175 167
271 268 271 269 228 219 222 223 227 225 226 236 248 251 281 295 290 295 296 290 284 283 317 342 312 273 269 206 283 215 208 225 232 226 264 337 288 275 276 356 222 219 243 189 175 185 170
267 273 264 270 245 221 220 224 223 219 219 236 237 247 278 284 283 283 275 257 236 237 234 243 233 247 265 115 228 222 217 237 189 205 225 294 240 246 200 247 189 207 206 185 149 196 174
264 266 270 261 262 229 219 221 217 212 209 230 233 238 253 265 266 266 203 244 177 214 199 206 260 262 246 221 84 155 177 163 165 157 173 207 208 227 226 221 173 214 227 156 160 174 196
258 258 263 260 260 239 222 219 213 207 209 222 222 236 245 253 253 178 172 200 211 191 209 236 153 261 115 336 200 214 168 181 145 192 194 197 99 259 213 211 277 233 193 154 109 146 215
251 249 251 262 254 258 225 219 212 204 203 213 211 220 242 255 216 175 254 249 347 359 289 218 251 264 275 281 238 197 195 193 193 261 151 217 223 198 262 209 264 267 241 115 123 174 255
244 243 247 249 252 255 238 216 208 200 202 202 198 204 224 189 136 187 234 236 5 2 255 185 221 245 236 192 230 183 219 191 233 208 171 279 344 218 178 195 221 235 245 153 177 185 229
243 237 238 243 244 243 245 217 206 194 196 199 193 193 179 133 181 219 226 229 245 267 262 157 200 209 187 232 210 351 269 299 188 292 23 134 273 241 106 298 273 245 129 211 202 192 215
250 234 232 236 241 237 238 225 204 193 193 191 184 184 168 196 343 209 40 20 117 201 247 152 150 99 156 215 167 168 216 220 218 137 243 37 190 199 206 72 297 116 224 200 200 228 220
246 238 229 228 233 231 232 217 200 189 186 183 181 182 167 219 253 272 340 338 165 242 228 164 159 183 185 212 218 143 177 236 7 189 225 255 309 308 57 109 275 128 173 218 246 263 270
241 236 229 223 227 226 228 216 203 188 180 176 174 178 180 171 199 187 248 194 196 231 150 159 185 180 195 174 189 205 185 201 204 189 245 183 188 116 199 144 158 218 225 232 214 236 246
258 232 226 219 219 221 224 216 202 183 173 168 168 170 217 235 236 319 216 205 233 216 198 147 179 188 201 162 195 207 209 212 215 253 229 199 185 178 170 266 300 210 271 251 285 271 259
259 248 226 220 218 215 218 213 200 179 161 150 141 195 234 218 236 260 220 205 219 220 184 174 194 191 195 174 232 206 220 226 197 220 256 232 131 129 252 242 276 179 244 333 310 312 279
243 250 228 219 213 211 213 208 197 176 151 151 180 192 221 194 180 212 223 224 231 261 230 192 192 199 189 193 204 201 192 214 167 253 294 346 262 174 123 219 208 271 28 215 226 253 255
231 234 241 218 211 207 206 205 195 172 156 174 191 210 171 161 169 209 213 209 233 185 208 205 208 193 219 189 201 194 201 140 201 181 244 271 250 147 170 212 236 176 231 235 306 296 285
221 223 247 214 209 205 201 200 191 169 164 171 197 214 150 152 186 199 214 215 223 182 199 222 283 193 226 194 207 223 226 222 167 193 211 194 261 235 239 85 311 296 269 211 229 212 214
224 222 238 213 200 199 205 199 190 171 166 169 199 168 168 197 197 195 212 220 201 200 195 200 204 213 216 203 206 225 217 71 186 216 233 184 231 229 232 208 216 238 229 244 228 332 241
222 253 219 202 199 188 204 196 193 171 180 199 193 168 153 201 219 198 205 207 207 211 206 198 205 174 190 194 207 192 185 155 187 201 357 65 245 230 246 308 332 204 240 220 214 226 247
220 230 193 197 196 192 199 196 191 173 186 213 210 194 173 179 195 212 206 200 203 180 224 198 192 205 199 205 187 204 179 157 181 151 191 243 240 240 263 298 295 289 267 228 235 240 253
213 209 203 198 200 193 183 202 192 179 185 215 217 195 173 167 192 206 199 216 204 190 181 197 221 203 206 197 206 209 198 193 185 178 197 190 225 297 252 243 269 272 263 257 251 252 257
205 205 202 203 201 194 179 216 195 185 184 202 250 174 173 160 189 200 200 213 202 175 204 260 212 167 195 86 56 32 61 48 114 177 193 181 168 190 254 340 311 286 240 246 251 251 256
204 207 209 202 194 179 181 213 204 186 196 216 228 179 169 174 185 194 194 211 206 174 165 148 175 172 99 125 99 79 82 86 95 66 149 165 182 166 272 235 292 293 46 308 280 274 263
204 213 209 198 187 172 188 237 196 183 203 239 266 229 166 147 183 194 189 206 203 141 138 127 54 70 155 155 124 131 108 86 122 79 128 224 164 145 185 224 297 285 175 268 244 295 17
209 208 200 195 177 185 192 199 179 184 210 223 265 276 157 147 192 187 192 203 158 141 135 93 130 98 147 117 142 193 197 219 158 150 131 96 136 235 166 224 235 74 78 104 235 247 41
206 199 187 189 202 185 192 184 181 190 196 207 285 249 188 162 165 176 197 197 189 175 127 134 161 165 270 107 120 186 199 318 185 195 184 136 223 213 202 252 285 43 151 216 240 43 5
188 185 186 188 173 185 180 180 183 189 188 191 269 271 230 132 112 173 198 185 203 201 159 132 144 154 160 155 179 171 148 195 217 199 181 180 173 185 180 209 264 132 144 271 21 321 336
189 199 198 183 169 170 173 176 179 181 184 187 256 26 43 93 78 56 45 27 351 270 201 176 215 150 172 157 73 102 131 48 336 235 168 214 230 256 213 227 105 200 337 329 314 309 316